• In Russia
  • List of Countries
  • For 7 days
  • Water Temperature
  • Satellite Maps
  • Weather Map
  • Weather Widgets
  • user-avatar
    Login

    Hourly Weather Lankovo

    Today, 21 March, Thursday

    Time Temperature Precipitation Wind Pressure Humidity
    00:00 +1°C° 0.1 mm 3 mps 752 mmHg 72%
    01:00 0°C° 0.1 mm 4 mps 751 mmHg 72%
    02:00 0°C° 0 mm 3 mps 750 mmHg 76%
    03:00 0°C° 0.4 mm 4 mps 750 mmHg 78%
    04:00 0°C° 0.4 mm 4 mps 750 mmHg 80%
    05:00 0°C° 0.4 mm 5 mps 749 mmHg 83%
    06:00 0°C° 0 mm 5 mps 750 mmHg 84%
    07:00 0°C° 0 mm 5 mps 750 mmHg 85%
    08:00 +1°C° 0 mm 5 mps 750 mmHg 85%
    09:00 +1°C° 0 mm 5 mps 750 mmHg 81%
    10:00 +2°C° 0 mm 5 mps 751 mmHg 78%
    11:00 +3°C° 0 mm 5 mps 751 mmHg 75%
    12:00 +5°C° 0 mm 4 mps 751 mmHg 69%
    13:00 +6°C° 0 mm 4 mps 751 mmHg 63%
    14:00 +7°C° 0 mm 4 mps 751 mmHg 59%
    15:00 +7°C° 0 mm 4 mps 751 mmHg 60%
    16:00 +8°C° 0 mm 3 mps 751 mmHg 61%
    17:00 +7°C° 0 mm 2 mps 751 mmHg 63%
    18:00 +7°C° 0 mm 3 mps 750 mmHg 67%
    19:00 +5°C° 0 mm 3 mps 750 mmHg 71%
    20:00 +4°C° 0 mm 3 mps 750 mmHg 75%
    21:00 +4°C° 0.1 mm 3 mps 750 mmHg 78%
    22:00 +4°C° 0.1 mm 3 mps 749 mmHg 81%
    23:00 +4°C° 0.1 mm 4 mps 749 mmHg 83%

    Tomorrow, 22 March, Friday

    Time Temperature Precipitation Wind Pressure Humidity
    00:00 +4°C° 0.5 mm 4 mps 748 mmHg 85%
    01:00 +3°C° 0.5 mm 5 mps 747 mmHg 87%
    02:00 +3°C° 0.5 mm 5 mps 747 mmHg 89%
    03:00 +4°C° 0.5 mm 6 mps 746 mmHg 89%
    04:00 +4°C° 0.5 mm 6 mps 746 mmHg 89%
    05:00 +5°C° 0.5 mm 6 mps 745 mmHg 90%
    06:00 +5°C° 0 mm 7 mps 745 mmHg 86%
    07:00 +5°C° 0 mm 8 mps 746 mmHg 82%
    08:00 +5°C° 0 mm 8 mps 746 mmHg 78%
    09:00 +5°C° 0.1 mm 9 mps 746 mmHg 69%
    10:00 +5°C° 0.1 mm 10 mps 747 mmHg 59%
    11:00 +3°C° 0.1 mm 10 mps 748 mmHg 50%
    12:00 +3°C° 0 mm 10 mps 748 mmHg 48%
    13:00 +3°C° 0 mm 10 mps 749 mmHg 45%
    14:00 +3°C° 0 mm 10 mps 749 mmHg 43%
    15:00 +3°C° 0 mm 9 mps 749 mmHg 44%
    16:00 +2°C° 0 mm 9 mps 749 mmHg 46%
    17:00 +2°C° 0 mm 8 mps 750 mmHg 47%
    18:00 +2°C° 0 mm 7 mps 750 mmHg 50%
    19:00 0°C° 0 mm 7 mps 750 mmHg 54%
    20:00 -1°C° 0 mm 6 mps 750 mmHg 57%
    21:00 -1°C° 0 mm 7 mps 751 mmHg 59%
    22:00 -2°C° 0 mm 7 mps 751 mmHg 60%
    23:00 -3°C° 0 mm 7 mps 751 mmHg 62%

    Day after tomorrow, 23 March, Saturday

    Time Temperature Precipitation Wind Pressure Humidity
    00:00 -3°C° 0 mm 7 mps 751 mmHg 64%
    01:00 -3°C° 0 mm 6 mps 751 mmHg 66%
    02:00 -4°C° 0 mm 6 mps 751 mmHg 68%
    03:00 -4°C° 0 mm 6 mps 751 mmHg 70%
    04:00 -4°C° 0 mm 6 mps 751 mmHg 72%
    05:00 -4°C° 0 mm 6 mps 752 mmHg 73%
    06:00 -4°C° 0 mm 5 mps 752 mmHg 72%
    07:00 -2°C° 0 mm 5 mps 752 mmHg 72%
    08:00 -2°C° 0 mm 5 mps 752 mmHg 71%
    09:00 -1°C° 0 mm 5 mps 752 mmHg 67%
    10:00 +1°C° 0 mm 4 mps 752 mmHg 63%
    11:00 +3°C° 0 mm 4 mps 752 mmHg 60%
    12:00 +3°C° 0 mm 3 mps 752 mmHg 57%
    13:00 +4°C° 0 mm 3 mps 752 mmHg 54%
    14:00 +6°C° 0 mm 2 mps 752 mmHg 52%
    15:00 +6°C° 0 mm 2 mps 751 mmHg 54%
    16:00 +7°C° 0 mm 1 mps 751 mmHg 56%
    17:00 +7°C° 0 mm 1 mps 751 mmHg 58%
    18:00 +5°C° 0 mm 1 mps 750 mmHg 61%
    19:00 +4°C° 0 mm 1 mps 750 mmHg 64%
    20:00 +2°C° 0 mm 2 mps 750 mmHg 68%
    21:00 +2°C° 0 mm 2 mps 749 mmHg 69%
    22:00 0°C° 0 mm 3 mps 749 mmHg 70%
    23:00 0°C° 0 mm 3 mps 748 mmHg 71%

    24 March, Sunday

    Time Temperature Precipitation Wind Pressure Humidity
    00:00 0°C° 0.4 mm 3 mps 748 mmHg 70%
    01:00 +1°C° 0.4 mm 3 mps 747 mmHg 69%
    02:00 0°C° 0.4 mm 4 mps 747 mmHg 67%
    03:00 0°C° 0.7 mm 4 mps 746 mmHg 72%
    04:00 +1°C° 0.7 mm 3 mps 746 mmHg 78%
    05:00 +1°C° 0.7 mm 3 mps 745 mmHg 83%
    06:00 +1°C° 0 mm 4 mps 746 mmHg 81%
    07:00 +1°C° 0 mm 4 mps 746 mmHg 80%
    08:00 +2°C° 0 mm 5 mps 746 mmHg 79%
    09:00 +3°C° 0 mm 5 mps 746 mmHg 72%
    10:00 +3°C° 0 mm 5 mps 746 mmHg 65%
    11:00 +4°C° 0 mm 6 mps 746 mmHg 57%
    12:00 +4°C° 0 mm 6 mps 746 mmHg 53%
    13:00 +5°C° 0 mm 6 mps 746 mmHg 49%
    14:00 +5°C° 0 mm 6 mps 746 mmHg 45%
    15:00 +6°C° 0 mm 5 mps 745 mmHg 47%
    16:00 +5°C° 0 mm 5 mps 745 mmHg 50%
    17:00 +5°C° 0 mm 4 mps 745 mmHg 53%
    18:00 +4°C° 0 mm 4 mps 745 mmHg 56%
    19:00 +3°C° 0 mm 4 mps 745 mmHg 60%
    20:00 +2°C° 0 mm 3 mps 745 mmHg 64%
    21:00 +1°C° 0 mm 3 mps 746 mmHg 66%
    22:00 0°C° 0 mm 3 mps 746 mmHg 69%
    23:00 0°C° 0 mm 3 mps 746 mmHg 71%

    25 March, Monday

    Time Temperature Precipitation Wind Pressure Humidity
    00:00 -1°C° 0 mm 3 mps 746 mmHg 71%
    01:00 -2°C° 0 mm 3 mps 746 mmHg 70%
    02:00 -2°C° 0 mm 3 mps 746 mmHg 69%
    03:00 -4°C° 0 mm 3 mps 746 mmHg 70%
    04:00 -4°C° 0 mm 3 mps 746 mmHg 70%
    05:00 -4°C° 0 mm 3 mps 746 mmHg 70%
    06:00 -2°C° 0 mm 3 mps 746 mmHg 66%
    07:00 -2°C° 0 mm 3 mps 746 mmHg 61%
    08:00 -1°C° 0 mm 3 mps 746 mmHg 57%
    09:00 +1°C° 0 mm 3 mps 746 mmHg 52%
    10:00 +2°C° 0 mm 3 mps 746 mmHg 46%
    11:00 +3°C° 0 mm 3 mps 746 mmHg 41%
    12:00 +4°C° 0 mm 3 mps 745 mmHg 41%
    13:00 +4°C° 0 mm 4 mps 745 mmHg 41%
    14:00 +5°C° 0 mm 4 mps 744 mmHg 41%
    15:00 +5°C° 0 mm 3 mps 744 mmHg 44%
    16:00 +4°C° 0 mm 3 mps 743 mmHg 47%
    17:00 +4°C° 0 mm 3 mps 743 mmHg 50%
    18:00 +2°C° 0 mm 3 mps 743 mmHg 54%
    19:00 +1°C° 0 mm 3 mps 743 mmHg 59%
    20:00 0°C° 0 mm 3 mps 742 mmHg 63%
    21:00 0°C° 0 mm 3 mps 742 mmHg 65%
    22:00 -1°C° 0 mm 3 mps 742 mmHg 66%
    23:00 -1°C° 0 mm 3 mps 742 mmHg 67%

    26 March, Tuesday

    Time Temperature Precipitation Wind Pressure Humidity
    00:00 -1°C° 0 mm 2 mps 742 mmHg 69%
    01:00 -1°C° 0 mm 2 mps 742 mmHg 70%
    02:00 +1°C° 0 mm 1 mps 742 mmHg 72%
    03:00 +1°C° 0 mm 1 mps 742 mmHg 73%
    04:00 +1°C° 0 mm 1 mps 742 mmHg 75%
    05:00 0°C° 0 mm 0 mps 742 mmHg 76%
    06:00 +2°C° 0 mm 1 mps 743 mmHg 75%
    07:00 +2°C° 0 mm 1 mps 743 mmHg 73%
    08:00 +2°C° 0 mm 2 mps 744 mmHg 71%
    09:00 +3°C° 0 mm 2 mps 745 mmHg 69%
    10:00 +3°C° 0 mm 3 mps 745 mmHg 66%
    11:00 +4°C° 0 mm 3 mps 746 mmHg 63%
    12:00 +5°C° 0 mm 3 mps 746 mmHg 55%
    13:00 +5°C° 0 mm 3 mps 746 mmHg 48%
    14:00 +5°C° 0 mm 3 mps 746 mmHg 41%
    15:00 +5°C° 0 mm 3 mps 746 mmHg 42%
    16:00 +5°C° 0 mm 3 mps 746 mmHg 44%
    17:00 +5°C° 0 mm 2 mps 746 mmHg 45%
    18:00 +3°C° 0 mm 3 mps 746 mmHg 50%
    19:00 +2°C° 0 mm 3 mps 746 mmHg 55%
    20:00 0°C° 0 mm 4 mps 746 mmHg 59%
    21:00 0°C° 0 mm 4 mps 746 mmHg 63%
    22:00 0°C° 0 mm 4 mps 745 mmHg 66%
    23:00 -1°C° 0 mm 4 mps 745 mmHg 69%
    Show more